Regional Weather Roundup
Issued by NWS

Home | Current Version | Previous Version | Graphics & Text | Print | Product List | Glossary On
Versions: 1 2 3 4 5 6 7 8 9 10 11 12 13 14 15 16 17 18 19 20 21 22 23 24 25 26 27 28 29 30 31 32 33 34 35 36 37 38 39 40 41 42 43 44 45 46 47 48
000
ASUS43 KDMX 300307
RWRIA

WEATHER ROUNDUP FOR IOWA
NATIONAL WEATHER SERVICE DES MOINES IA
1000 PM CDT TUE JUL 29 2014

NOTE: "FAIR" INDICATES FEW OR NO CLOUDS BELOW 12,000 FEET WITH NO
SIGNIFICANT WEATHER AND/OR OBSTRUCTIONS TO VISIBILITY.

* - THESE STATIONS ARE NOT NWS STATIONS...THUS NOT UNDER NWS
QUALITY CONTROL.  THEY ALSO DO NOT REPORT WEATHER SUCH
AS PRECIPITATION OR FOG.

IAZ001>003-012>014-020>022-031>034-043>046-300400-
   NORTHWEST IOWA

CITY           SKY/WX    TMP DP  RH WIND       PRES   REMARKS
CARROLL *      CLEAR     57  55  94 W7        30.12R
CHEROKEE *     CLEAR     61  57  88 CALM      30.12R
DENISON *      CLEAR     59  57  94 E3        30.11R
LE MARS *      CLEAR     61  57  88 CALM      30.13R
ORANGE CITY *  CLEAR     64  55  72 CALM      30.13R
SHELDON *      CLEAR     57  55  94 CALM      30.12R
SIOUX CITY     CLEAR     61  57  87 CALM      30.13R
SPENCER        CLEAR     60  57  89 NW5       30.12R
STORM LAKE *   CLEAR     61  57  88 NW6       30.14R
$$

IAZ055>058-069>071-079>083-090>094-300400-
   SOUTHWEST IOWA

CITY           SKY/WX    TMP DP  RH WIND       PRES   REMARKS
ATLANTIC *     CLEAR     63  57  82 CALM      30.12R
AUDUBON *      CLEAR     61  55  82 CALM      30.14R
CLARINDA *     CLEAR     63  59  88 CALM      30.13S
COUNCIL BLFS *   N/A     66  57  72 N3        30.12R
CRESTON *      CLEAR     64  57  77 NW5       30.12R
HARLAN  *      CLEAR     61  57  88 CALM      30.16R
LAMONI         MOCLDY    67  57  70 NW3       30.11R
RED OAK *      CLEAR     63  57  82 CALM      30.13R
SHENANDOAH *   CLEAR     64  61  88 CALM      30.13R
$$

IAZ047>049-059>061-072>074-084-300400-
   CENTRAL IOWA

CITY           SKY/WX    TMP DP  RH WIND       PRES   REMARKS
AMES           CLEAR     63  58  83 W6        30.10R
ANKENY *       CLEAR     63  59  88 CALM      30.10R
CHARITON *     CLEAR     64  57  77 W6        30.11R
DES MOINES     PTCLDY    68  55  63 W6        30.10R
GRINNELL*      CLEAR     63  57  82 W5        30.10R
KNOXVILLE *    PTCLDY    66  57  72 NW6       30.08R
MARSHALLTOWN   CLEAR     63  59  87 NW5       30.09R
PELLA *        CLEAR     66  57  72 N5        30.10R
PERRY *          N/A     61  59  94 NW3       30.11R
$$

IAZ004>006-015-016-023>025-035-036-300400-
   NORTH CENTRAL IOWA

CITY           SKY/WX    TMP DP  RH WIND       PRES   REMARKS
ALGONA *       CLEAR     63  59  88 W5        30.11R
CLARION *      CLEAR     61  59  94 CALM      30.10R
ESTHERVILLE    CLEAR     61  56  83 NW5       30.11R
FORT DODGE *   CLEAR     63  55  77 CALM      30.12R
MASON CITY     CLEAR     59  55  87 W7        30.11R
FOREST CITY *  CLEAR     61  55  82 CALM      30.10R
IOWA FALLS *     N/A     63  57  82 CALM      30.11R
$$

IAZ007>011-017>019-026>030-037>042-050>054-066-300400-
   NORTHEAST IOWA

CITY           SKY/WX    TMP DP  RH WIND       PRES   REMARKS
CEDAR RAPIDS   CLEAR     61  57  87 W7        30.06R
CHARLES CITY * CLEAR     63  57  82 W5        30.09R
CLINTON *      CLEAR     63  57  82 W7        30.07S
DECORAH *      MOCLDY    66  55  68 CALM      30.06R
DUBUQUE        PTCLDY    66  59  78 NE10      30.06R
MONTICELLO *   CLEAR     63  59  88 CALM      30.05S
OELWEIN *      CLEAR     64  59  82 NW6       30.08R
WATERLOO       CLEAR     62  57  83 W5        30.06R
$$

IAZ064-065-067-068-078-300400-
   EAST CENTRAL IOWA

CITY           SKY/WX    TMP DP  RH WIND       PRES   REMARKS
DAVENPORT      CLEAR     63  58  83 NW6       30.05S
IOWA CITY      CLEAR     65  60  84 W5        30.08R
MT. PLEASANT * CLEAR     64  59  82 SW3       30.08R
MUSCATINE *    CLEAR     66  59  77 W5        30.06R
QUAD CITIES    CLEAR     65  57  75 W5        30.04S
$$

IAZ062-063-075>077-085>089-095>099-300400-
   SOUTHEAST IOWA

CITY           SKY/WX    TMP DP  RH WIND       PRES   REMARKS
BURLINGTON     CLEAR     62  59  90 W3        30.07R
FAIRFIELD *    CLEAR     63  59  88 CALM      30.09R
FORT MADISON * CLEAR     64  61  88 CALM      30.08R
KEOKUK *       CLEAR     64  63  94 CALM      30.07R
OSKALOOSA *      N/A     64  59  82 NW6       30.09R
CENTERVILLE *  CLEAR     59  57  94 W3        30.11R
OTTUMWA        CLEAR     63  58  83 W5        30.08R
WASHINGTON *   CLEAR     64  61  88 W6        30.08R
$$

ABBREVIATIONS USED IN REMARKS
   TC - TEMPERATURES IN CELSIUS
  WCI - WIND CHILL INDEX
   HX - HEAT INDEX
  VSB - VISIBILITY
$$




USA.gov is the U.S. government's official web portal to all federal, state and local government web resources and services.